Simultaneous Nadir Overpasses (SNOs) Predictions

Prediction of SNOs between AQUA and METOP-B Satellite Orbit:

Table of predicted SNOs for the next 14.0 days since TLE Epoch: 7/13/2013
Index Date (AQUA) Time (AQUA) Lat,Lon (AQUA) SZA (AQUA ) Date (METOP-B) Time (METOP-B) Lat,Lon (METOP-B) SZA (METOP-B ) Distance(km) Time Diff (sec)
1 07/15/2013 14:54:02 -73.70, 131.07 127.68 07/15/2013 14:53:14 -73.74, 131.09 127.64 3.53 48
2 07/15/2013 15:43:31 73.77, -61.44 52.40 07/15/2013 15:43:53 73.77, -61.51 52.40 2.31 22
3 07/18/2013 10:28:16 -73.73,-162.55 127.17 07/18/2013 10:27:35 -73.73,-162.52 127.17 1.30 41
4 07/18/2013 11:17:45 73.80, 4.93 52.91 07/18/2013 11:18:13 73.80, 4.99 52.91 1.74 28
5 07/21/2013 06:02:29 -73.72, -96.09 126.66 07/21/2013 06:01:56 -73.70, -96.16 126.66 3.05 33
6 07/21/2013 06:51:58 73.80, 71.39 53.43 07/21/2013 06:52:33 73.82, 71.44 53.45 2.84 35
7 07/24/2013 01:36:41 -73.73, -29.65 126.08 07/24/2013 01:36:15 -73.71, -29.72 126.09 2.70 26
8 07/24/2013 02:26:10 73.81, 137.81 54.01 07/24/2013 02:26:52 73.82, 137.86 54.02 2.08 42
9 07/26/2013 21:10:54 -73.74, 36.76 125.45 07/26/2013 21:10:34 -73.75, 36.79 125.44 1.56 20
10 07/26/2013 22:00:23 73.83,-155.79 54.65 07/26/2013 22:01:12 73.80,-155.76 54.62 2.84 49




NCC Satellite Simultaneous Nadir Overpasses (SNOs) Prediction Service
